Torna al catalogo

STARLINK-2518

AttivoComunicazioniVLEO
NORAD 48333·PAYLOAD·🇺🇸 United States

Lanciato Apr 29, 2021 da Cape Canaveral Space Force Station

Loading…

Prossimi Passaggi (prossime 24 ore)

TLE

AggiornatoSource: CelesTrak SupGP

Epoca: Sep 14, 2026, 12:49 UTC

1 48333C 21036BK  26257.53451389  .00042413  00000+0  13638-2 0  2576
2 48333  53.1576 302.1970 0001070  75.9302 231.9496 15.31682479    17

Traccia STARLINK-2518 in tempo reale con AllMySat

Download on the App Store